Location: Basse Occidentale du Courleau
(48.3833°N, 4.8333°W)
Time: 03:59:06
(UTC+00:00)

Genesis I - Pass Details

Date: 05 July 2020
Orbit: 510 x 513 km, 64.5° (Epoch: 11 August)

Event Time Altitude Azimuth Distance (km) Brightness Sun altitude
Exits shadow 23:53:33 22° 239° (WSW) 1,155 4.7 -18.6°
Maximum altitude 23:55:52 58° 312° (NW) 604 3.7 -18.7°
Drops below altitude 10° 23:59:42 10° 33° (NNE) 1,739 6.6 -18.7°
Sets 00:01:55 0° 37° (NE) 2,628 7.5 -18.8°
